CAPE
32 21 11 12 53 61 1 0 0 4 2 1 3 1 0 1 6 6 2 3 2 1 1 1 5 0 7 3 3 0 0 3 0 0 0 1 0 7 23 23 2 0 0 0
24 6 3 0 54 20 0 0 1 8 1 0 1 0 0 0 1 3 2 1 3 2 4 4 1 5 7 1 0 0 0 1 0 0 1 5 1 0 5 6 0 0 0 0
25 5 2 0 22 2 0 0 1 6 5 2 3 1 2 3 2 4 5 3 5 4 4 4 0 0 5 0 0 4 0 5 1 0 0 0 0 0 0 0 3 1 0 0
9 6 0 4 22 1 0 0 0 0 2 2 1 5 4 3 0 4 6 2 1 2 1 8 6 3 11 0 0 2 4 0 2 0 0 0 0 0 0 0 1 0 0 0
14 10 3 1 46 0 1 0 0 4 3 0 1 1 2 2 3 3 2 2 0 3 0 4 1 0 13 0 0 0 3 11 3 0 0 2 0 0 0 0 0 0 0 0
16 4 8 1 15 1 2 0 0 0 0 1 6 0 0 2 5 0 3 0 3 0 0 0 9 0 8 0 0 0 0 7 0 2 0 0 0 0 0 0 0 0 0 0
40 11 8 0 32 7 0 0 0 0 0 0 0 7 27 31 8 7 0 0 1 2 6 10 4 24 14 5 0 0 0 0 1 1 0 0 0 0 0 0 0 0 0 0
44 13 14 15 16 20 1 0 0 0 1 1 0 0 3 7 2 0 1 0 0 17 5 0 1 38 27 9 0 0 0 3 8 1 0 0 0 0 0 0 0 0 0 0
31 9 1 3 0 1 6 0 0 0 1 0 0 0 0 1 6 1 0 0 0 5 9 11 0 4 13 5 0 0 0 4 9 1 3 0 0 0 0 0 0 0 0 0
21 8 9 2 1 15 3 0 0 0 1 0 0 0 0 5 2 0 0 0 0 1 4 3 0 0 0 0 0 0 1 1 2 2 0 0 0 0 0 0 0 0 0 0
17 21 6 4 1 13 5 0 0 0 0 0 0 0 0 0 0 1 0 0 0 0 7 5 4 0 0 0 1 0 0 0 0 9 0 0 0 0 0 0 0 0 0 0
21 25 3 3 2 12 8 0 0 1 0 5 0 0 0 0 0 0 0 0 0 3 7 2 0 0 0 0 0 0 2 0 0 0 0 0 0 0 0 0 0 0 0 0
25 15 5 2 2 9 11 0 2 1 1 0 1 0 0 0 0 0 0 0 0 0 0 0 0 0 0 0 0 0 0 0 0 0 0 0 0 0 0 0 0 0 0 0
18 9 4 2 2 7 3 0 0 0 9 6 1 0 0 0 0 0 0 0 0 0 0 0 0 0 0 0 0 0 0 0 0 0 0 0 0 0 0 0 0 0 0 0
18 3 2 2 2 6 3 0 0 0 24 17 0 0 0 0 0 0 0 0 0 0 2 0 0 0 0 0 0 0 0 0 0 0 0 0 0 0 0 0 0 0 0 0
11 2 2 1 1 10 1 3 0 0 0 16 0 0 0 0 0 0 0 0 0 0 11 9 0 0 0 0 0 0 0 0 0 0 0 0 0 0 0 0 0 0 0 0
11 3 1 2 8 7 1 5 0 1 0 0 0 2 0 0 1 0 0 0 0 0 0 0 0 0 0 0 0 0 0 0 0 0 0 0 0 0 0 0 0 0 0 0
5 1 3 3 1 0 1 1 1 0 0 0 0 0 1 0 2 0 0 0 0 0 0 0 0 0 0 0 0 0 0 0 0 0 0 0 0 0 0 0 0 0 0 0
1 2 1 0 0 0 0 0 0 0 0 0 0 0 0 0 0 0 0 0 0 0 0 0 0 0 0 0 0 0 0 0 0 0 0 0 0 0 0 0 0 0 0 0
1 1 0 0 0 0 0 0 0 0 0 0 0 0 0 0 0 0 0 0 0 0 0 0 1 0 0 0 0 0 0 0 0 0 0 0 0 0 0 0 0 0 0 0
0 2 0 1 0 0 0 1 2 0 0 0 0 0 0 0 0 0 0 0 0 0 0 0 0 0 0 0 0 0 0 0 0 0 0 0 0 0 0 0 0 0 0 0
0 0 0 0 0 0 0 0 0 0 0 0 0 0 0 0 0 0 0 0 0 0 0 1 0 0 0 0 0 0 0 0 0 0 0 0 0 0 0 0 0 0 0 0
0 0 0 0 0 0 0 0 0 0 0 0 0 0 0 0 0 0 0 0 0 0 0 0 0 0 0 0 0 0 0 0 0 0 0 0 0 0 0 0 0 0 0 0
1 1 0 0 0 0 0 0 0 0 0 0 0 0 0 0 0 0 0 0 0 0 0 0 0 0 0 0 0 0 0 0 0 0 0 0 0 0 0 0 0 0 0 0
0 1 0 1 0 0 0 0 0 0 0 0 0 0 0 0 0 0 0 0 0 0 0 0 0 0 0 0 0 0 0 0 0 0 0 0 0 0 0 0 0 0 0 0
1 0 0 1 1 0 0 0 0 1 0 0 0 0 0 0 0 0 0 0 0 0 0 0 0 0 0 0 0 0 0 0 0 0 0 0 0 0 0 0 0 0 0 0
0 1 0 0 0 0 1 0 0 0 0 0 0 0 0 0 0 0 0 0 0 0 0 0 0 0 0 0 0 0 0 0 0 0 0 0 0 0 0 0 0 0 0 0
CIN
0 -8 0 -13 -6 -5 -6 0 0 0 0 0 0 0 -2 0 0 0 0 0 0 0 0 0 -1 0 -1 -7 -10 0 0 0 0 0 0 -3 0 -69 -65 -38 -82 0 0 0
0 -14 0 0 -3 -21 0 0 -3 0 -1 0 0 0 0 0 -1 0 0 0 0 0 0 -3 -6 -1 -8 -14 0 0 0 0 0 0 -1 0 0 -3 -108 -93 -2 0 0 0
0 -4 0 0 -2 0 0 0 0 0 0 -1 0 0 0 0 0 0 0 0 0 0 0 -4 -1 -4 -4 0 0 -20 -2 -2 0 0 0 -1 0 0 0 0 -110 -78 0 0
0 -1 0 0 -4 -2 0 0 0 0 0 0 0 0 0 0 0 0 0 0 0 0 0 -11 -1 -3 -1 0 0 -10 0 0 0 0 0 0 0 0 0 0 -144 0 0 0
-1 -2 0 0 0 -4 -15 0 0 -1 -1 0 0 0 0 0 0 0 0 0 0 0 0 0 -9 0 -2 0 0 0 -1 -7 -1 0 -9 -3 0 0 0 0 0 0 0 0
0 -3 0 0 -1 -25 -6 0 0 0 0 0 0 0 0 -2 -1 0 0 0 0 0 0 -1 -5 -4 -4 0 0 0 -1 -19 -2 -3 0 0 0 0 0 0 0 0 0 0
0 0 -1 -1 -2 -2 0 0 0 0 0 0 0 -5 -5 -6 -1 0 0 -1 0 -32 -50 -12 -20 -3 -3 -6 0 0 0 0 -2 -5 0 0 0 0 0 0 0 0 0 0
0 0 0 0 0 -1 -2 0 0 0 0 0 0 0 -31 -34 -5 0 -1 0 -32 -14 -16 0 -1 -3 -2 -2 0 0 0 -11 -4 -5 0 0 0 0 0 0 0 0 0 0
0 0 0 0 0 -1 -18 0 0 -4 0 0 0 0 0 0 -1 -2 0 0 0 -24 -22 -9 0 -6 -2 -4 -2 0 0 -4 -1 -5 -3 0 0 0 0 0 0 0 0 0
0 0 0 -3 0 -3 -14 0 0 0 0 0 0 -1 0 -3 -6 0 0 0 0 -9 0 -1 -3 0 0 0 0 0 -2 -2 -1 -4 -2 0 0 0 0 0 0 0 0 0
-1 0 0 -1 0 -9 -2 0 0 -1 0 0 0 0 0 0 -1 -1 0 0 0 0 0 -4 -4 -1 0 0 0 0 -1 0 -1 -2 0 0 0 0 0 0 0 0 0 0
-1 0 0 0 0 -7 0 -1 0 0 0 -1 0 0 0 0 0 -6 0 0 0 -19 -8 -8 0 -1 0 0 0 0 0 0 0 0 0 0 0 0 0 0 0 0 0 0
0 0 0 0 0 0 0 0 0 0 0 -1 -5 0 0 0 0 0 -2 0 0 0 0 0 0 0 0 0 0 0 0 0 0 0 0 0 0 0 0 0 0 0 0 0
-1 0 0 0 0 0 -1 0 0 0 -2 -1 0 0 0 0 0 0 0 0 0 0 0 0 0 0 0 0 0 0 0 0 0 0 0 0 0 0 0 0 0 0 0 0
0 0 0 0 0 0 0 0 0 0 -1 -1 -4 0 0 0 0 0 0 0 0 0 -6 -1 0 -1 0 0 0 0 0 0 0 0 0 0 0 0 0 0 0 0 0 0
0 0 0 0 0 0 -3 -1 0 -30 0 -1 0 0 0 0 0 0 0 0 0 0 -9 -3 0 0 0 0 0 0 0 0 0 0 0 0 0 0 0 0 0 0 0 0
0 0 0 0 0 0 0 -2 0 0 0 -3 -21 0 0 0 -1 0 0 0 0 0 0 0 0 0 0 0 0 0 0 0 0 0 0 0 0 0 0 0 0 0 0 0
0 0 0 0 -1 0 -1 0 0 0 0 0 0 0 -2 0 0 0 0 0 0 0 0 0 0 0 0 0 0 0 0 0 0 0 0 0 0 0 0 0 0 0 0 0
0 0 0 0 0 -6 -1 0 0 0 0 0 0 0 0 0 0 0 0 0 0 0 0 0 0 0 0 0 0 0 0 0 0 0 0 0 0 0 0 0 0 0 0 0
0 -3 0 0 0 0 0 0 0 0 0 0 0 0 0 0 0 0 0 0 0 0 0 0 0 0 0 0 0 0 0 0 0 0 0 0 0 0 0 0 0 0 0 0
-17 -6 0 0 0 0 0 -1 -1 0 0 0 0 0 0 0 0 0 0 0 0 0 0 0 0 0 0 0 0 0 0 0 0 0 0 0 0 0 0 0 0 0 0 0
0 0 0 0 0 0 0 0 0 0 0 0 0 0 0 0 0 0 0 0 0 0 0 0 0 0 0 0 0 0 0 0 0 0 0 0 0 0 0 0 0 0 0 0
0 0 0 0 0 0 0 0 0 0 0 0 0 0 0 0 0 0 0 0 0 0 0 0 0 0 0 0 0 0 0 0 0 0 0 0 0 0 0 0 0 0 0 0
0 0 0 0 0 0 0 0 0 0 0 0 0 0 0 0 0 0 0 0 0 0 0 0 0 0 0 0 0 0 0 0 0 0 0 0 0 0 0 0 0 0 0 0
0 0 0 0 0 0 0 0 0 0 0 0 0 0 0 0 0 0 0 0 0 0 0 0 0 0 0 0 0 0 0 0 0 0 0 0 0 0 0 0 0 0 0 0
0 0 0 0 0 0 0 0 0 0 0 0 0 0 0 0 0 0 0 0 0 0 0 0 0 0 0 0 0 0 0 0 0 0 0 0 0 0 0 0 0 0 0 0
0 0 0 0 0 0 0 0 0 -1 0 0 0 0 0 0 0 0 0 0 0 0 0 0 0 0 0 0 0 0 0 0 0 0 0 0 0 0 0 0 0 0 0 0
Wind_Speed
29 30 29 26 12 15 16 23 26 10 8 19 23 24 19 21 16 9 9 12 7 6 1 2 20 37 30 32 30 33 28 21 24 28 30 36 28 24 22 22 23 17 17 19
28 29 29 26 19 13 21 25 22 14 11 27 27 23 17 8 13 11 12 7 2 2 2 5 35 37 32 28 33 32 30 21 21 20 21 22 30 31 27 21 19 22 19 18
28 28 30 31 31 17 23 24 22 20 23 22 24 11 25 20 8 7 5 9 2 3 12 32 32 36 33 29 35 32 26 22 23 20 22 27 28 40 31 27 24 22 19 14
28 28 30 34 26 19 24 25 23 20 24 28 24 20 27 13 15 6 3 8 4 10 26 34 35 34 28 31 37 32 25 25 18 19 7 14 21 24 28 30 27 24 19 18
27 29 27 25 15 20 26 23 23 20 25 18 6 26 31 23 11 7 6 2 11 26 32 33 33 34 33 34 35 35 27 24 17 15 12 16 16 18 22 25 28 30 27 26
26 27 27 27 30 23 26 24 21 24 25 26 12 30 27 18 11 4 6 13 19 31 35 30 24 30 31 27 33 34 28 25 22 18 14 19 24 28 32 32 32 31 30 27
27 27 28 26 19 27 27 26 23 26 29 28 30 30 27 21 25 14 9 20 25 32 33 25 19 22 29 26 24 33 27 27 22 19 16 24 20 19 29 33 29 33 36 26
28 27 28 31 35 42 31 26 26 25 27 26 30 29 27 26 22 10 18 25 32 11 16 20 22 24 28 25 20 28 30 27 20 19 20 22 24 20 22 23 34 35 32 29
29 27 28 29 29 38 30 30 24 23 24 25 24 24 23 22 20 10 13 22 25 24 18 24 32 30 27 30 24 21 22 29 27 23 23 19 18 18 19 19 25 24 30 21
28 28 28 27 27 37 31 28 25 26 26 27 26 25 21 20 19 10 17 17 17 18 25 25 26 26 23 28 29 25 22 26 35 32 25 25 17 17 16 15 17 20 20 9
29 29 30 29 27 33 32 28 24 27 26 26 22 21 21 22 21 14 10 14 22 19 19 18 20 21 25 20 21 23 22 24 28 24 27 29 15 16 18 17 16 15 11 4
30 29 29 29 27 27 26 26 25 25 25 22 21 23 23 22 19 15 12 25 25 22 17 16 15 17 17 19 23 14 23 21 24 25 22 15 12 13 15 15 13 12 9 7
30 28 29 28 27 26 20 24 20 20 25 26 25 24 18 16 17 14 21 23 22 18 21 19 19 16 18 13 19 13 21 11 21 15 23 20 17 16 16 12 10 9 8 7
30 29 29 29 28 26 25 26 23 21 20 22 18 16 17 16 15 11 13 13 16 17 18 19 20 23 20 24 21 20 19 15 27 25 20 19 20 17 11 8 7 7 7 9
32 31 31 30 28 31 26 24 24 22 21 18 17 15 17 18 18 13 13 19 16 15 14 18 18 20 19 20 21 22 18 15 7 23 14 17 16 5 4 4 5 7 9 9
32 33 33 31 30 25 22 27 28 26 21 19 16 17 17 16 13 13 13 13 16 15 12 11 12 15 14 13 18 19 11 12 13 14 9 11 4 3 3 4 5 5 7 8
32 33 32 31 24 23 23 22 20 18 16 19 17 16 17 17 16 15 14 14 14 15 14 14 13 13 14 17 16 11 6 8 9 6 5 8 6 7 3 4 5 7 8 9
34 33 28 19 15 18 25 20 12 13 17 17 17 15 15 17 18 17 16 16 16 17 16 15 16 15 16 19 15 11 9 9 10 14 16 7 4 4 4 4 5 6 8 9
33 26 13 17 23 23 22 15 13 14 16 18 18 16 16 14 17 18 17 17 19 20 22 21 19 18 18 17 18 14 11 14 11 12 9 5 4 3 3 3 4 5 7 8
26 16 20 24 23 7 9 18 20 20 21 18 18 16 14 12 13 16 19 19 20 23 22 23 25 30 25 21 21 19 13 11 7 9 11 7 6 4 3 4 5 6 6 7
24 21 22 16 12 16 18 18 20 20 21 19 18 16 11 16 14 14 17 20 21 25 24 25 27 27 25 24 23 19 13 11 10 15 10 8 4 1 2 5 6 6 6 7
21 15 11 14 17 20 23 24 22 22 25 18 15 17 16 15 15 15 16 17 19 24 21 24 28 24 22 21 18 15 12 11 12 9 5 4 2 3 3 4 5 6 7 8
17 17 19 18 20 23 27 28 26 23 17 16 14 13 14 15 16 15 16 17 18 18 21 24 23 18 16 16 13 11 9 7 5 4 3 3 3 4 4 5 6 7 8 9
22 22 23 26 26 30 27 25 22 20 15 8 7 13 15 15 16 15 17 17 16 19 21 23 20 17 15 13 11 6 4 2 1 2 3 5 5 5 6 6 6 7 9 11
22 23 27 26 23 22 22 18 16 17 11 8 9 12 15 15 17 17 15 17 21 21 22 19 16 14 12 9 7 3 2 3 4 4 5 5 5 5 6 8 9 10 11 13
22 22 24 22 22 22 20 18 15 10 9 10 14 17 19 20 19 19 20 18 22 21 19 16 11 9 7 6 4 3 3 4 5 5 6 6 6 6 7 9 11 13 14 15
22 24 21 23 22 22 19 16 14 9 10 14 16 20 21 14 20 21 19 22 19 16 14 11 9 6 4 3 4 5 5 6 6 6 6 6 7 7 9 11 13 14 15 16
Wind_Direction
274 264 262 256 231 230 234 241 248 248 192 252 274 281 308 317 322 332 323 334 330 333 13 182 173 205 215 209 208 210 220 227 236 234 235 208 211 220 228 228 224 242 241 240
266 261 253 256 243 194 232 238 250 249 237 259 269 290 306 288 322 334 342 320 311 85 66 102 191 209 222 214 205 204 206 230 224 233 225 222 225 219 224 242 244 239 247 243
284 265 253 248 230 213 231 238 246 254 255 276 277 287 231 221 330 294 321 346 76 82 162 191 203 208 213 217 205 211 210 230 227 237 233 215 216 201 225 234 240 247 256 249
287 268 258 258 228 213 230 239 250 255 255 261 278 300 280 333 339 352 38 353 185 149 181 192 204 208 216 215 203 216 220 210 236 224 231 223 229 233 229 232 238 248 256 265
280 268 253 254 199 219 234 240 250 259 263 276 217 212 238 230 235 345 350 57 151 175 196 200 207 209 207 205 204 198 235 225 239 224 230 230 237 240 245 245 245 248 258 263
282 269 263 259 239 227 239 243 253 256 262 267 265 231 221 223 6 36 145 155 163 178 194 209 224 215 215 221 213 210 220 232 240 250 265 252 251 239 233 241 247 249 257 262
281 269 258 263 235 228 236 240 249 252 256 262 247 245 241 225 254 200 128 156 169 179 191 221 233 221 221 231 228 218 232 236 251 259 267 256 273 278 254 252 260 248 247 265
279 269 257 253 250 224 235 239 244 250 259 265 246 254 263 269 236 109 147 153 168 232 221 215 219 217 220 231 243 234 234 241 259 263 268 267 267 281 272 267 258 253 256 262
280 270 259 261 238 220 232 236 247 253 262 266 269 267 265 259 248 54 263 213 204 206 223 211 199 209 220 224 237 249 250 240 246 259 265 274 282 289 286 277 274 274 260 266
280 271 260 259 247 221 232 241 247 248 258 263 266 260 266 259 263 308 225 226 228 230 216 211 210 215 226 221 224 232 243 244 236 246 261 265 289 294 288 282 284 291 285 270
280 269 257 254 246 227 228 240 246 245 254 261 276 272 276 250 242 272 275 241 226 230 234 235 231 234 228 240 246 250 250 244 241 249 249 251 284 284 273 284 301 310 338 7
277 266 253 251 251 234 235 242 245 250 253 267 275 268 265 264 275 285 284 231 226 234 244 248 254 247 246 248 247 263 249 250 249 248 258 290 295 300 286 303 323 328 349 3
272 263 255 249 251 238 240 240 247 253 254 262 269 265 281 283 284 305 268 249 240 251 243 244 251 263 260 272 271 273 264 232 263 266 260 274 282 286 293 326 346 351 8 32
268 259 251 245 247 235 232 237 244 252 259 261 276 282 274 285 286 325 300 261 253 254 257 258 261 256 267 254 265 267 268 260 242 254 270 275 277 289 302 347 4 12 21 48
265 253 247 240 240 224 231 242 245 248 253 270 276 282 275 273 264 293 266 238 250 256 269 273 271 271 265 272 269 261 266 272 264 266 282 282 294 307 342 15 34 56 62 48
259 243 235 234 227 222 231 236 245 244 253 267 278 274 272 270 279 269 259 270 261 269 284 296 296 274 277 289 276 277 290 289 287 290 306 306 343 359 12 64 64 41 40 40
249 235 232 230 223 223 233 241 251 244 247 259 273 276 270 265 266 272 272 276 282 279 289 291 300 295 288 287 281 311 305 304 301 309 322 303 305 307 25 56 42 47 35 28
236 228 229 221 220 234 237 253 266 240 246 261 268 281 274 267 262 265 276 274 275 281 283 292 285 294 287 281 288 293 292 287 280 272 278 316 3 29 24 40 51 32 25 24
224 223 195 219 230 232 238 247 250 251 256 256 263 268 272 275 271 269 275 278 271 277 272 275 284 280 280 290 287 281 279 280 283 287 304 325 341 8 26 36 14 18 23 13
207 187 220 228 226 201 220 243 244 251 255 263 266 266 274 280 283 276 268 274 274 272 275 281 275 266 276 286 286 280 282 286 288 287 291 299 318 325 342 339 351 5 13 14
208 217 228 223 186 232 242 246 246 253 257 259 257 263 276 277 288 290 282 274 277 272 276 275 274 280 279 287 284 284 283 281 286 297 306 309 313 341 352 349 357 9 17 12
209 220 203 220 236 245 243 244 252 255 251 260 256 260 270 278 286 293 289 285 280 275 286 280 276 287 293 293 292 285 283 280 287 305 317 335 352 351 7 9 12 15 15 12
209 220 227 231 238 239 240 240 246 249 257 260 256 258 272 276 284 293 289 287 287 293 282 281 286 301 310 310 308 299 293 293 301 319 343 20 19 19 28 31 23 17 8 6
225 232 230 235 242 244 248 247 250 255 259 257 249 260 276 278 272 285 287 288 294 289 287 288 300 303 311 315 313 314 310 321 15 61 63 53 50 38 29 22 19 16 8 2
236 238 237 239 250 254 253 258 260 260 238 231 250 275 278 273 275 280 288 287 283 285 292 302 309 313 315 319 322 334 20 74 83 77 69 60 52 45 27 14 14 10 4 357
242 245 243 248 249 251 253 256 257 255 220 237 265 267 267 268 270 272 275 281 285 292 298 308 320 325 330 338 351 15 51 73 78 67 67 61 52 43 29 12 1 358 357 354
245 243 250 249 251 249 252 255 254 227 213 244 263 260 266 277 273 271 277 284 293 296 303 312 320 331 338 24 58 71 77 76 70 62 44 37 36 30 9 357 354 356 356 356